CW1784 Weather Reports


time (UTC)temp
C
wind
direction
speed
KPH
gust
KPH
rain 1hr
cm
rain 24hr
cm
rain mn
cm
humidity
%
barometer
mb
20260506214013 12 0 0.0 9.7 0.00 0.00 0.00 49 1011.3
20260506213512 12 0 0.0 9.7 0.00 0.00 0.00 51 1011.2
20260506213030 12 113 1.6 8.0 0.00 0.00 0.00 50 1011.2
20260506212518 12 151 0.0 3.2 0.00 0.00 0.00 50 1011.3
20260506212014 12 0 0.0 3.2 0.00 0.00 0.00 50 1011.2
20260506211536 12 0 0.0 3.2 0.00 0.00 0.00 49 1011.3
20260506211014 12 0 0.0 3.2 0.00 0.00 0.00 50 1011.2
20260506210514 12 161 0.0 1.6 0.00 0.00 0.00 51 1011.2
20260506210031 12 0 0.0 1.6 0.00 0.00 0.00 52 1011.3
20260506205515 12 0 0.0 0.0 0.00 0.00 0.00 54 1011.2
20260506205013 12 0 0.0 0.0 0.00 0.00 0.00 54 1011.2
20260506204534 12 0 0.0 0.0 0.00 0.00 0.00 53 1011.2
20260506204018 12 0 0.0 0.0 0.00 0.00 0.00 54 1011.2
20260506203516 12 0 0.0 0.0 0.00 0.00 0.00 54 1011.2
20260506203048 12 0 0.0 0.0 0.00 0.00 0.00 53 1011.1
20260506202515 12 0 0.0 0.0 0.00 0.00 0.00 54 1011.2
20260506202015 12 0 0.0 0.0 0.00 0.00 0.00 56 1011.1
20260506201528 12 0 0.0 0.0 0.00 0.00 0.00 56 1011.1
20260506201012 12 0 0.0 0.0 0.00 0.00 0.00 55 1011.1
20260506200516 12 0 0.0 0.0 0.00 0.00 0.00 55 1011.0
20260506200043 12 0 0.0 0.0 0.00 0.00 0.00 54 1011.0
20260506195516 12 0 0.0 0.0 0.00 0.00 0.00 55 1010.9
20260506195016 12 0 0.0 0.0 0.00 0.00 0.00 54 1010.9
20260506194532 12 0 0.0 0.0 0.00 0.00 0.00 53 1010.8
20260506194015 13 0 0.0 0.0 0.00 0.00 0.00 52 1010.8
20260506193513 13 0 0.0 0.0 0.00 0.00 0.00 51 1010.8
20260506193029 13 0 0.0 0.0 0.00 0.00 0.00 49 1010.7
20260506192515 13 0 0.0 0.0 0.00 0.00 0.00 49 1010.7
20260506192014 14 0 0.0 0.0 0.00 0.00 0.00 48 1010.7
20260506191531 14 0 0.0 0.0 0.00 0.00 0.00 46 1010.8
20260506191015 15 0 0.0 0.0 0.00 0.00 0.00 45 1010.8
20260506190514 15 0 0.0 0.0 0.00 0.00 0.00 42 1010.7
20260506190036 15 0 0.0 0.0 0.00 0.00 0.00 41 1010.7
20260506185515 15 0 0.0 1.6 0.00 0.00 0.00 38 1010.7
20260506185015 15 0 0.0 1.6 0.00 0.00 0.00 37 1010.6
20260506184528 15 0 0.0 4.8 0.00 0.00 0.00 40 1010.7
20260506184015 15 0 0.0 4.8 0.00 0.00 0.00 38 1010.6
20260506183516 15 156 0.0 4.8 0.00 0.00 0.00 40 1010.7
20260506183030 16 0 0.0 3.2 0.00 0.00 0.00 41 1010.4
20260506182512 15 0 0.0 8.0 0.00 0.00 0.00 38 1010.5
20260506182021 15 0 1.6 8.0 0.00 0.00 0.00 41 1010.5
20260506181534 16 165 1.6 11.3 0.00 0.00 0.00 42 1010.5
20260506181013 16 0 0.0 11.3 0.00 0.00 0.00 39 1010.5
20260506180516 16 140 3.2 11.3 0.00 0.00 0.00 39 1010.5
20260506180030 16 150 4.8 9.7 0.00 0.00 0.00 39 1010.6
20260506175512 16 191 4.8 9.7 0.00 0.00 0.00 37 1010.4
20260506175015 16 0 3.2 11.3 0.00 0.00 0.00 38 1010.6
20260506174530 16 144 4.8 11.3 0.00 0.00 0.00 38 1010.6
20260506174014 16 184 3.2 9.7 0.00 0.00 0.00 38 1010.6
20260506173515 16 115 1.6 9.7 0.00 0.00 0.00 38 1010.7
20260506173037 16 0 0.0 11.3 0.00 0.00 0.00 39 1010.7
20260506172515 16 151 3.2 11.3 0.00 0.00 0.00 41 1010.7
20260506172013 17 164 3.2 11.3 0.00 0.00 0.00 38 1010.7
20260506171532 16 92 3.2 11.3 0.00 0.00 0.00 38 1010.7
20260506171013 17 146 1.6 11.3 0.00 0.00 0.00 41 1010.7
20260506170516 17 141 3.2 11.3 0.00 0.00 0.00 39 1010.7
20260506170032 17 360 1.6 9.7 0.00 0.00 0.00 39 1010.7
20260506165513 17 0 0.0 12.9 0.00 0.00 0.00 41 1010.8
20260506165014 17 117 3.2 12.9 0.00 0.00 0.00 40 1010.8
20260506164529 17 179 4.8 12.9 0.00 0.00 0.00 40 1010.9
20260506164013 17 0 1.6 12.9 0.00 0.00 0.00 39 1010.7
20260506163515 17 124 4.8 12.9 0.00 0.00 0.00 39 1010.8
20260506163050 17 118 4.8 11.3 0.00 0.00 0.00 39 1010.8
20260506162516 17 123 0.0 8.0 0.00 0.00 0.00 43 1010.8
20260506162017 17 0 4.8 11.3 0.00 0.00 0.00 38 1010.8
20260506161530 17 94 1.6 11.3 0.00 0.00 0.00 40 1010.8
20260506161015 17 0 4.8 11.3 0.00 0.00 0.00 41 1010.8
20260506160512 17 164 1.6 11.3 0.00 0.00 0.00 42 1010.9
20260506160030 17 136 4.8 11.3 0.00 0.00 0.00 44 1010.9
20260506155515 18 156 4.8 14.5 0.00 0.00 0.00 40 1010.7
20260506155015 18 170 3.2 14.5 0.00 0.00 0.00 40 1010.8
20260506154538 18 210 4.8 14.5 0.00 0.00 0.00 41 1010.8
20260506154013 18 206 6.4 12.9 0.00 0.00 0.00 41 1010.9
20260506153516 18 112 6.4 12.9 0.00 0.00 0.00 41 1011.1
20260506153032 18 157 6.4 11.3 0.00 0.00 0.00 42 1011.1
20260506152515 18 215 0.0 12.9 0.00 0.00 0.00 42 1011.2
20260506152016 18 224 1.6 12.9 0.00 0.00 0.00 43 1011.2
20260506151539 18 198 4.8 12.9 0.00 0.00 0.00 44 1011.2
20260506151016 17 175 1.6 14.5 0.00 0.00 0.00 46 1011.3
20260506150518 16 194 4.8 14.5 0.00 0.00 0.00 45 1011.2
20260506150032 16 156 3.2 12.9 0.00 0.00 0.00 44 1011.4
20260506145514 17 194 0.0 9.7 0.00 0.00 0.00 44 1011.5
20260506145016 18 192 3.2 9.7 0.00 0.00 0.00 42 1011.6
20260506144531 18 0 0.0 17.7 0.00 0.00 0.00 41 1011.6
20260506144015 18 0 3.2 17.7 0.00 0.00 0.00 39 1011.6
20260506143513 18 167 9.7 17.7 0.00 0.00 0.00 41 1011.7
20260506143031 18 0 3.2 14.5 0.00 0.00 0.00 38 1011.6
20260506142513 18 183 3.2 14.5 0.00 0.00 0.00 43 1011.7
20260506142019 18 150 1.6 12.9 0.00 0.00 0.00 42 1011.9
20260506141530 18 85 4.8 14.5 0.00 0.00 0.00 42 1011.7
20260506141020 18 0 6.4 14.5 0.00 0.00 0.00 45 1011.8
20260506140513 18 171 3.2 12.9 0.00 0.00 0.00 41 1011.8
20260506140034 18 0 3.2 14.5 0.00 0.00 0.00 44 1011.9
20260506135518 18 143 8.0 16.1 0.00 0.00 0.00 40 1012.0
20260506135020 18 74 8.0 16.1 0.00 0.00 0.00 41 1012.1
20260506134531 18 182 3.2 11.3 0.00 0.00 0.00 46 1012.0
20260506134017 18 0 3.2 11.3 0.00 0.00 0.00 41 1012.0
20260506133516 18 0 3.2 14.5 0.00 0.00 0.00 40 1012.2
20260506133029 18 182 4.8 14.5 0.00 0.00 0.00 44 1012.1
20260506132515 19 173 0.0 14.5 0.00 0.00 0.00 44 1012.2
20260506132012 19 171 3.2 14.5 0.00 0.00 0.00 43 1012.3
20260506131535 18 0 1.6 12.9 0.00 0.00 0.00 37 1012.4
20260506131015 19 192 4.8 12.9 0.00 0.00 0.00 43 1012.3
20260506130517 18 0 0.0 9.7 0.00 0.00 0.00 45 1012.4
20260506130030 18 11 0.0 9.7 0.00 0.00 0.00 42 1012.4
20260506125514 18 0 1.6 11.3 0.00 0.00 0.00 41 1012.6
20260506125013 18 172 4.8 11.3 0.00 0.00 0.00 46 1012.6
20260506124532 17 171 1.6 11.3 0.00 0.00 0.00 49 1012.7
20260506124014 17 88 1.6 8.0 0.00 0.00 0.00 44 1012.8
20260506123515 18 0 0.0 12.9 0.00 0.00 0.00 51 1012.8
20260506123032 18 149 1.6 12.9 0.00 0.00 0.00 44 1012.9
20260506122515 17 141 6.4 12.9 0.00 0.00 0.00 45 1013.0
20260506122013 16 153 0.0 9.7 0.00 0.00 0.00 46 1012.9
20260506121529 17 0 1.6 11.3 0.00 0.00 0.00 47 1013.1
20260506121015 18 255 3.2 11.3 0.00 0.00 0.00 47 1013.0
20260506120515 17 216 3.2 14.5 0.00 0.00 0.00 47 1013.1
20260506120028 17 249 4.8 14.5 0.00 0.00 0.00 51 1013.1
20260506115514 16 0 4.8 14.5 0.00 0.00 0.00 53 1013.2
20260506115015 16 0 0.0 8.0 0.00 0.00 0.00 49 1013.2
20260506114530 15 0 0.0 9.7 0.00 0.00 0.00 46 1013.3
20260506114014 15 132 3.2 9.7 0.00 0.00 0.00 52 1013.3
20260506113513 15 123 1.6 9.7 0.00 0.00 0.00 51 1013.3
20260506113030 16 0 0.0 8.0 0.00 0.00 0.00 49 1013.3
20260506112518 17 0 1.6 8.0 0.00 0.00 0.00 48 1013.5
20260506112014 16 0 1.6 9.7 0.00 0.00 0.00 51 1013.4
20260506111533 17 281 1.6 9.7 0.00 0.00 0.00 45 1013.4
20260506111013 16 333 3.2 6.4 0.00 0.00 0.00 49 1013.4
20260506110512 16 44 0.0 8.0 0.00 0.00 0.00 53 1013.5
20260506110031 16 23 0.0 8.0 0.00 0.00 0.00 47 1013.5
20260506105512 16 334 3.2 12.9 0.00 0.00 0.00 49 1013.5
20260506105016 16 0 3.2 12.9 0.00 0.00 0.00 50 1013.6
20260506104528 17 126 3.2 11.3 0.00 0.00 0.00 50 1013.6
20260506104016 17 324 1.6 8.0 0.00 0.00 0.00 48 1013.5
20260506103513 16 0 0.0 8.0 0.00 0.00 0.00 51 1013.6
20260506103028 17 0 3.2 8.0 0.00 0.00 0.00 51 1013.7
20260506102516 16 0 1.6 11.3 0.00 0.00 0.00 53 1013.7
20260506102015 16 157 3.2 11.3 0.00 0.00 0.00 49 1013.7
20260506101532 16 176 1.6 9.7 0.00 0.00 0.00 53 1013.8
20260506101013 15 0 1.6 8.0 0.00 0.00 0.00 53 1013.8
20260506100513 15 37 0.0 6.4 0.00 0.00 0.00 52 1013.8
20260506100031 15 66 1.6 11.3 0.00 0.00 0.00 51 1013.8
20260506095513 15 0 1.6 11.3 0.00 0.00 0.00 55 1013.8
20260506095018 15 146 1.6 11.3 0.00 0.00 0.00 56 1013.9
20260506094532 16 150 1.6 11.3 0.00 0.00 0.00 53 1013.8
20260506094014 16 0 0.0 9.7 0.00 0.00 0.00 55 1013.8
20260506093516 15 249 1.6 9.7 0.00 0.00 0.00 54 1013.8
20260506093029 15 273 1.6 9.7 0.00 0.00 0.00 53 1013.8
20260506092513 13 319 3.2 8.0 0.00 0.00 0.00 56 1013.8
20260506092013 13 0 1.6 12.9 0.00 0.00 0.00 59 1013.7
20260506091530 13 317 4.8 12.9 0.00 0.00 0.00 59 1013.8
20260506091018 13 0 0.0 8.0 0.00 0.00 0.00 57 1013.8
20260506090515 13 0 0.0 12.9 0.00 0.00 0.00 58 1013.8
20260506090033 13 317 4.8 12.9 0.00 0.00 0.00 56 1013.9
20260506085514 13 0 3.2 12.9 0.00 0.00 0.00 60 1013.7
20260506085015 13 103 0.0 12.9 0.00 0.00 0.00 63 1013.9
20260506084539 13 0 3.2 12.9 0.00 0.00 0.00 58 1013.9
20260506084013 13 0 1.6 11.3 0.00 0.00 0.00 62 1013.7
20260506083516 12 56 3.2 11.3 0.00 0.00 0.00 61 1013.8
20260506083032 12 0 0.0 11.3 0.00 0.00 0.00 61 1013.8
20260506082514 12 73 3.2 11.3 0.00 0.00 0.00 62 1013.8
20260506082011 12 104 0.0 11.3 0.00 0.00 0.00 61 1013.8
20260506081535 12 0 1.6 11.3 0.00 0.00 0.00 63 1013.8
20260506081014 12 92 3.2 9.7 0.00 0.00 0.00 64 1013.8
20260506080514 12 88 1.6 9.7 0.00 0.00 0.00 63 1013.8
20260506073519 11 55 4.8 14.5 0.00 0.00 0.00 67 1013.7
20260506073030 11 105 6.4 14.5 0.00 0.00 0.00 68 1013.7
20260506072517 10 78 4.8 12.9 0.00 0.00 0.00 70 1013.7
20260506072017 10 92 3.2 14.5 0.00 0.00 0.00 70 1013.6
20260506071532 10 67 4.8 14.5 0.00 0.00 0.00 69 1013.6
20260506071016 10 82 1.6 16.1 0.00 0.00 0.00 71 1013.7
20260506070516 10 75 6.4 16.1 0.00 0.00 0.00 70 1013.7
20260506062517 8 83 3.2 12.9 0.00 0.00 0.00 73 1013.5
20260506062016 8 101 3.2 12.9 0.00 0.00 0.00 74 1013.4
20260506061534 8 96 6.4 14.5 0.00 0.00 0.00 74 1013.5
20260506061019 7 82 6.4 14.5 0.00 0.00 0.00 74 1013.3
20260506060517 7 80 4.8 17.7 0.00 0.00 0.00 75 1013.3
20260506051016 6 101 3.2 9.7 0.00 0.00 0.00 78 1013.0
20260506050516 6 103 4.8 12.9 0.00 0.00 0.00 78 1013.0
20260506045016 6 101 4.8 14.5 0.00 0.00 0.00 78 1012.9
20260506044532 6 106 3.2 14.5 0.00 0.00 0.00 78 1012.9
20260506044016 6 92 4.8 12.9 0.00 0.00 0.00 77 1012.9
20260506043518 6 111 6.4 16.1 0.00 0.00 0.00 77 1012.9
20260506043035 6 93 6.4 16.1 0.00 0.00 0.00 77 1012.7
20260506042517 6 94 4.8 16.1 0.00 0.00 0.00 76 1012.9
20260506042015 7 96 4.8 14.5 0.00 0.00 0.00 76 1012.9
20260506041550 7 82 4.8 14.5 0.00 0.00 0.00 75 1012.8
20260506041016 7 109 6.4 14.5 0.00 0.00 0.00 75 1012.8
20260506040517 7 103 6.4 16.1 0.00 0.00 0.00 74 1012.9
20260506040034 7 94 8.0 16.1 0.00 0.00 0.00 74 1012.9
20260506035518 7 86 4.8 12.9 0.00 0.00 0.00 74 1012.9
20260506035018 7 83 4.8 12.9 0.00 0.00 0.00 74 1013.0
20260506034546 7 82 6.4 12.9 0.00 0.00 0.00 75 1013.0
20260506034020 7 88 4.8 12.9 0.00 0.00 0.00 74 1012.9
20260506033519 7 76 3.2 14.5 0.00 0.00 0.00 75 1013.0
20260506033030 7 78 4.8 14.5 0.00 0.00 0.00 75 1013.1
20260506032516 7 76 8.0 14.5 0.00 0.00 0.00 75 1013.1
20260506032018 7 85 6.4 14.5 0.00 0.00 0.00 75 1013.1
20260506031532 7 80 6.4 12.9 0.00 0.00 0.00 75 1013.1
20260506031017 7 78 3.2 8.0 0.00 0.00 0.00 74 1013.1
20260506030517 7 0 1.6 8.0 0.00 0.00 0.00 75 1013.1
20260506030038 7 69 3.2 8.0 0.00 0.00 0.00 75 1013.1
20260506025519 7 81 1.6 9.7 0.00 0.00 0.00 75 1013.1
20260506025016 7 84 3.2 9.7 0.00 0.00 0.00 74 1013.2
20260506024536 7 79 1.6 8.0 0.00 0.00 0.00 73 1013.1
20260506024017 7 74 3.2 8.0 0.00 0.00 0.00 72 1013.2
20260506023519 8 83 3.2 9.7 0.00 0.00 0.00 71 1013.1
20260506023034 8 84 3.2 14.5 0.00 0.00 0.00 70 1013.2
20260506022516 8 53 3.2 17.7 0.00 0.00 0.00 70 1013.1
20260506022016 8 43 6.4 17.7 0.00 0.00 0.00 70 1013.2
20260506021532 8 49 6.4 17.7 0.00 0.00 0.00 70 1013.2
20260506021016 8 55 4.8 14.5 0.00 0.00 0.00 70 1013.3
20260506020521 8 44 4.8 12.9 0.00 0.00 0.00 71 1013.3
20260506020030 7 65 3.2 8.0 0.00 0.00 0.00 73 1013.3
20260506015517 7 80 1.6 9.7 0.00 0.00 0.00 73 1013.2
20260506015017 7 84 3.2 11.3 0.00 0.00 0.00 72 1013.3
20260506014532 7 84 4.8 12.9 0.00 0.00 0.00 72 1013.3
20260506014016 8 85 3.2 12.9 0.00 0.00 0.00 72 1013.3
20260506013516 8 80 3.2 11.3 0.00 0.00 0.00 72 1013.3
20260506013043 8 89 3.2 9.7 0.00 0.00 0.00 71 1013.4
20260506012517 8 84 1.6 9.7 0.00 0.00 0.00 71 1013.3
20260506012017 8 81 3.2 9.7 0.00 0.00 0.00 70 1013.4
20260506011536 8 75 4.8 11.3 0.00 0.00 0.00 69 1013.4
20260506011016 8 68 3.2 11.3 0.00 0.00 0.00 69 1013.3
20260506010516 8 64 4.8 11.3 0.00 0.00 0.00 70 1013.3
20260506010036 8 57 4.8 9.7 0.00 0.00 0.00 71 1013.4
20260506005517 8 74 3.2 9.7 0.00 0.00 0.00 71 1013.5
20260506005016 8 86 3.2 9.7 0.00 0.00 0.00 71 1013.7
20260506004531 8 84 3.2 11.3 0.00 0.00 0.00 71 1013.6
20260506004016 8 84 3.2 11.3 0.00 0.00 0.00 71 1013.6
20260506003516 8 85 4.8 11.3 0.00 0.00 0.00 71 1013.6
20260506003030 8 76 4.8 11.3 0.00 0.00 0.00 70 1013.6
20260506002515 8 78 1.6 11.3 0.00 0.00 0.00 70 1013.6
20260506002016 8 69 3.2 6.4 0.00 0.00 0.00 70 1013.7
20260506001530 8 71 1.6 9.7 0.00 0.00 0.00 70 1013.6
20260506001015 8 78 1.6 14.5 0.00 0.00 0.00 69 1013.7
20260506000516 9 59 3.2 14.5 0.00 0.00 0.00 68 1013.6
20260506000032 8 71 4.8 14.5 0.00 0.00 0.00 68 1013.5
20260505235516 8 50 4.8 14.5 0.00 0.00 0.00 69 1013.6
20260505235019 8 57 3.2 14.5 0.00 0.00 0.00 68 1013.6
20260505234530 9 66 4.8 14.5 0.00 0.00 0.00 68 1013.7
20260505234019 9 63 4.8 12.9 0.00 0.00 0.00 68 1013.5
20260505233516 9 42 4.8 12.9 0.00 0.00 0.00 68 1013.5
20260505233032 9 76 3.2 8.0 0.00 0.00 0.00 67 1013.4
20260505232516 9 70 1.6 11.3 0.00 0.00 0.00 67 1013.5
20260505232016 9 0 1.6 11.3 0.00 0.00 0.00 66 1013.4
20260505231534 10 0 0.0 12.9 0.00 0.00 0.00 66 1013.3
20260505231015 9 45 3.2 12.9 0.00 0.00 0.00 66 1013.3
20260505230515 9 38 1.6 12.9 0.00 0.00 0.00 66 1013.3
20260505230045 9 46 4.8 12.9 0.00 0.00 0.00 66 1013.3
20260505225514 9 51 3.2 14.5 0.00 0.00 0.00 66 1013.2
20260505225014 9 15 6.4 16.1 0.00 0.00 0.00 66 1013.3
20260505224533 9 40 4.8 16.1 0.00 0.00 0.00 67 1013.3
20260505224016 8 47 6.4 16.1 0.00 0.00 0.00 69 1013.3
20260505223512 8 15 4.8 8.0 0.00 0.00 0.00 70 1013.3
20260505223038 8 22 1.6 8.0 0.00 0.00 0.00 71 1013.3
20260505222527 8 13 3.2 8.0 0.00 0.00 0.00 71 1013.5
20260505222015 8 15 1.6 6.4 0.00 0.00 0.00 71 1013.5
20260505221534 8 42 1.6 4.8 0.00 0.00 0.00 70 1013.5
20260505221020 8 0 0.0 8.0 0.00 0.00 0.00 70 1013.6
20260505220516 9 40 1.6 8.0 0.00 0.00 0.00 70 1013.6
20260505220047 9 17 3.2 12.9 0.00 0.00 0.00 70 1013.6
20260505215516 9 12 3.2 12.9 0.00 0.00 0.00 70 1013.6
20260505215016 9 26 6.4 12.9 0.00 0.00 0.00 69 1013.6
20260505214536 9 350 3.2 12.9 0.00 0.00 0.00 68 1013.5